Douglas, WY

1:12 AM MDT on June 23, 2017 (GMT -0600)
Converse County

Weather History for KDGW - December, 2013

Change the Weather History Date:

Thursday, December 5, 2013

  Actual Average Record
Temperature  
Mean Temperature -7 °F 25 °F  
Max Temperature 4 °F 38 °F 64 °F (2012)
Min Temperature -18 °F 12 °F -18 °F (2013)
Degree Days  
Heating Degree Days 72 40  
Month to date heating degree days 221 197  
Since 1 July heating degree days 1958 2019  
Cooling Degree Days 0 0  
Month to date cooling degree days 0 0  
Year to date cooling degree days 739 486  
Moisture  
Dew Point -11 °F    
Average Humidity 71    
Maximum Humidity 78    
Minimum Humidity 63    
Precipitation  
Precipitation T in 0.01 in 0.07 in (2000)
Month to date precipitation T 0.07  
Year to date precipitation 9.48 13.06  
Sea Level Pressure  
Sea Level Pressure 30.27 in    
Wind  
Wind Speed 2 mph (SE)    
Max Wind Speed 16 mph    
Max Gust Speed 18 mph    
Visibility 8 miles    
Events Snow    
T = Trace of Precipitation, MM = Missing Value Source: NWS Daily Summary

Daily Weather History Graph

Daily Weather History Graph

Search for Another Location

Airport or City:

Trip Planner

Search our weather history database for the weather conditions in past years. The results will help you decide how hot, cold, wet, or windy it might be!

Date:

Astronomy

Dec. 05, 2013 Rise Set
Actual Time 7:16 AM MST 4:27 PM MST
Civil Twilight 6:45 AM MST 4:59 PM MST
Nautical Twilight 6:09 AM MST 5:34 PM MST
Astronomical Twilight 5:35 AM MST 6:09 PM MST
Moon 9:37 AM MST (12/5) 7:53 PM MST (12/5)
Length of Visible Light 10h 14m
Length of Day
9h 10m
Waxing Crescent, 11% of the Moon is Illuminated
Dec 5
Waxing Crescent
Dec 9
First Quarter
Dec 17
Full
Dec 25
Last Quarter
Jan 1
New

Hourly Weather History & Observations

Time (MST) Temp. Windchill Dew Point Humidity Pressure Visibility Wind Dir Wind Speed Gust Speed Precip Events Conditions
12:53 AM -11.0 °F -20.4 °F -17.0 °F 75% 30.38 in 10.0 mi North 3.5 mph - N/A   Clear
1:53 AM -11.9 °F - -18.9 °F 71% 30.37 in 10.0 mi Calm Calm - N/A   Clear
2:53 AM -15.0 °F - -20.9 °F 75% 30.38 in 10.0 mi Calm Calm - N/A   Clear
3:53 AM -15.0 °F - -22.0 °F 71% 30.37 in 10.0 mi Calm Calm - N/A   Clear
4:53 AM -15.0 °F - -22.0 °F 71% 30.38 in 10.0 mi Calm Calm - N/A   Clear
5:53 AM -16.1 °F -28.6 °F -23.1 °F 71% 30.39 in 10.0 mi SE 4.6 mph - N/A   Clear
6:53 AM -15.0 °F - -22.0 °F 71% 30.42 in 10.0 mi Calm Calm - N/A   Clear
7:53 AM -11.9 °F - -20.0 °F 67% 30.42 in 10.0 mi Calm Calm - N/A   Clear
8:53 AM -7.1 °F - -15.0 °F 68% 30.43 in 10.0 mi Calm Calm - N/A   Clear
9:53 AM -2.0 °F - -9.9 °F 69% 30.42 in 10.0 mi Calm Calm - N/A   Clear
10:53 AM -0.9 °F - -7.1 °F 75% 30.41 in 10.0 mi Calm Calm - N/A   Mostly Cloudy
11:17 AM -0.4 °F -8.3 °F -7.6 °F 72% 30.05 in 7.0 mi South 3.5 mph - N/A   Overcast
11:53 AM 1.0 °F -10.3 °F -6.0 °F 72% 30.39 in 5.0 mi South 5.8 mph - N/A   Haze
12:22 PM 1.4 °F -9.9 °F -7.6 °F 66% 30.03 in 10.0 mi Variable 5.8 mph - N/A   Overcast
12:53 PM 1.9 °F -7.6 °F -6.0 °F 69% 30.37 in 8.0 mi South 4.6 mph - N/A   Overcast
1:22 PM 1.4 °F -6.2 °F -7.6 °F 66% 30.02 in 2.5 mi South 3.5 mph - N/A   Haze
1:30 PM 1.4 °F - -5.8 °F 72% 30.01 in 2.0 mi Calm Calm - N/A   Haze
1:53 PM 1.9 °F -5.6 °F -5.1 °F 72% 30.36 in 2.0 mi SSE 3.5 mph - N/A   Haze
2:01 PM 3.2 °F - -5.8 °F 66% 30.01 in 1.5 mi Calm Calm - 0.00 in Snow Light Snow
2:19 PM 3.2 °F - -5.8 °F 66% 30.01 in 2.5 mi Calm Calm - 0.00 in   Haze
2:27 PM 1.4 °F - -5.8 °F 72% 30.01 in 4.0 mi Calm Calm - 0.00 in   Haze
2:34 PM 3.2 °F - -5.8 °F 66% 30.01 in 4.0 mi Calm Calm - 0.00 in   Haze
2:44 PM 3.2 °F - -5.8 °F 66% 30.01 in 8.0 mi Calm Calm - 0.00 in   Overcast
2:53 PM 3.0 °F - -5.1 °F 69% 30.37 in 10.0 mi Calm Calm - 0.00 in   Overcast
3:03 PM 3.2 °F - -5.8 °F 66% 30.01 in 5.0 mi Calm Calm - N/A   Haze
3:14 PM 3.2 °F - -5.8 °F 66% 30.02 in 4.0 mi Calm Calm - N/A   Haze
3:53 PM 1.9 °F - -6.0 °F 69% 30.39 in 10.0 mi Calm Calm - N/A   Overcast
4:36 PM 1.4 °F - -7.6 °F 66% 30.04 in 4.0 mi Calm Calm - N/A   Haze
4:53 PM -0.0 °F -7.9 °F -8.0 °F 69% 30.42 in 5.0 mi SE 3.5 mph - N/A   Haze
5:30 PM -0.4 °F - -7.6 °F 72% 30.06 in 10.0 mi Calm Calm - N/A   Mostly Cloudy
5:53 PM -2.0 °F -10.1 °F -9.9 °F 69% 30.44 in 9.0 mi SE 3.5 mph - N/A   Mostly Cloudy
6:53 PM -4.0 °F -14.6 °F -11.0 °F 72% 30.46 in 10.0 mi East 4.6 mph - N/A   Mostly Cloudy
7:53 PM -4.0 °F -14.6 °F -11.0 °F 72% 30.46 in 10.0 mi East 4.6 mph - N/A   Overcast
8:53 PM -6.0 °F -14.7 °F -11.9 °F 75% 30.45 in 10.0 mi ESE 3.5 mph - N/A   Clear
9:53 PM -6.0 °F -16.9 °F -13.0 °F 72% 30.44 in 10.0 mi SE 4.6 mph - N/A   Mostly Cloudy
10:53 PM -7.1 °F -18.1 °F -14.1 °F 72% 30.45 in 10.0 mi East 4.6 mph - N/A   Clear
11:53 PM -6.0 °F -16.9 °F -14.1 °F 68% 30.44 in 10.0 mi East 4.6 mph - N/A   Clear